INTELSAT K

operational
NORAD ID: 21989 Int'l Des: 1992-032 Owner: INTEL Country: I-INT
HEOCIRCULAR

About INTELSAT K

Description loading...

Live Position

Loading 3D Globe...

Upcoming Passes

Altitude History

Altitude vs Time

uPlot chart will show altitude changes over time

Two-Line Element Set

1 21989U 92032A 26015.10474810 -.00000065 00000-0 00000+0 0 9995
2 21989 14.8493 13.4845 0079669 355.6111 17.8653 0.97180818131001
Epoch: Jan 15, 2026 • Age: 10 hours

Current Status

Altitude 37003.2 km
Velocity 3.02 km/s
Sub-Earth Point 5.11°N, 129.07°W
Launch Date Jun 10, 1992
Age 33.5 years
Type communications

Technical Details

Classification Payload
Mass 2900.00 kg
Dry Mass 1300.00 kg
Total Mass 2900.00 kg
Length 2.90 m
Diameter 2.30 m
Span 21.50 m
Shape Box + 2 Pan
Manufacturer GEEW
Bus Type AS5000
Phase Status Renamed
Owner/State INTEL/I-INT

Large Constellations

Loading constellations...